Back to catalog

FENGYUN 1C DEB

AliveSSO
NORAD 36652·DEBRIS·🇨🇳 China

Launched May 10, 1999 from Taiyuan Satellite Launch Center

Loading…

Next Passes (next 24 hours)

TLE

FreshSource: Space-Track

Epoch: Sep 13, 2026, 12:39 UTC

1 36652U 99025DXW 26256.52757768  .00002385  00000-0  10309-2 0  9998
2 36652  98.9345 348.1389 0049238 280.7392  78.8245 14.24725260682356

Track FENGYUN 1C DEB in real time with AllMySat

Download on the App Store